Location: Jabiru
(12.6667°S, 132.8333°E)
Time: 22:11:07
(UTC+09:30)

Tiangong 2 - Visible Passes

Search period start: 20 April 2019 00:00
Search period end: 30 April 2019 00:00
Orbit: 378 x 389 km, 42.8° (Epoch: 20 April)

Date Brightness Start Highest point End Pass type
(mag) Time Alt. Az. Time Alt. Az. Time Alt. Az.
20 Apr 3.9 20:14:03 10° NW 20:14:41 15° NW 20:14:41 15° NW visible
21 Apr 1.9 06:02:53 10° SW 06:05:58 49° SE 06:09:03 10° ENE visible
21 Apr 2.6 19:14:57 10° N 19:17:28 22° NE 19:18:25 19° ENE visible
22 Apr 3.5 05:06:23 19° SE 05:06:23 19° SE 05:08:33 10° E visible
22 Apr 2.0 19:51:18 10° WNW 19:54:18 41° SW 19:54:22 41° SW visible
23 Apr 1.2 05:42:21 41° W 05:43:06 53° NW 05:46:11 10° NE visible
23 Apr 1.1 18:51:26 10° NW 18:54:33 63° NE 18:57:40 10° SE visible
24 Apr 4.4 04:46:04 12° ENE 04:46:04 12° ENE 04:46:25 10° ENE visible
24 Apr 3.6 19:29:18 10° W 19:31:28 17° SW 19:33:39 10° S visible
25 Apr 3.7 05:22:00 13° N 05:22:00 13° N 05:22:31 10° N visible
